Zurück zum Katalog

EUTE 7 WEST A

AB 7

AktivKommunikationGEO
NORAD 37816·PAYLOAD·🇪🇺 EU

Gestartet Sep 24, 2011 von Sea Launch Platform

Loading…

TLE

AktuellSource: Space-Track

Epoche: Sep 14, 2026, 08:38 UTC

1 37816U 11051A   26257.35983174 -.00000069  00000-0  00000-0 0  9991
2 37816   0.0632 352.7969 0005998 180.8597 301.9039  1.00272177 54773

Verfolge EUTE 7 WEST A in Echtzeit mit AllMySat

Download on the App Store